Tracking 31027 objects as of 19-Jul-2025
HD Live streaming from Space Station
objects crossing your sky now

SL-14 R/B

Track SL-14 R/B now!
10-day predictions


NORAD ID: 19196
Int'l Code: 1988-046B
Perigee: 1,491.0 km
Apogee: 1,524.6 km
Inclination: 73.6 °
Period: 116.0 minutes
Semi major axis: 7878 km
RCS: 5.4646 m2 (large)
Launch date: May 30, 1988
Source: Commonwealth of Independent States (former USSR) (CIS)
Launch site: PLESETSK MISSILE AND SPACE COMPLEX (PKMTR)

Note: This is a ROCKET BODY
Your satellite tracking list
KORSAT 7
Track 1 satellite(s)




NASA's NSSDC Master Catalog

Two Line Element Set (TLE):
1 19196U 88046B   25199.36638075  .00000000  00000-0  12885-3 0  9993
2 19196  73.5980 174.3952 0021363 297.8779 216.3944 12.41404639682891
Source of the keplerian elements: AFSPC